Content
SEND FEEDBACK

Daily
Averages
Monthly
Summary
Philippines

QUEZON CITY, PHILIPPINES


Home > Asia > Philippines
Elevation: 46 meters     Latitude: 14 39N     Longitude: 121 03E

WEATHER
 
SELECT A DAY
Number of Records: 172,421;   Date Range: 7/1/96 - 7/23/14
 
SHARE

PRINT THIS DATA

[ ← Previous Day ]
WEATHER ALMANAC - 16 MARCH, 2013
[ Next Day → ]
[ °F ]   °C
Weather ElementAverageHighLow
Temperature27.9 °C31.1 °C (11:00 am)25 °C (3:00 am)
Dewpoint22.3 °C23 °C (5:00 am)21.7 °C (2:00 am)
Humidity70.3 %89 % (6:00 am)48 % (11:00 am)
Barometer1014.6 hPa1016.3 hPa (8:00 am)1012.2 hPa (4:00 pm)
Wind Speed10.9 km/h18.5 km/h (3:00 pm)
Weather ElementAverage
Visibility10 km
Wind DirectionESE (116.3 °)

Weather ElementTotal
Precipitation---
Cooling Degree Days9.7 (Base 18.3)
Growing Degree Days18.1 (Base 10)
Averaged from 30 records on 16 March, 2013
WEATHER CONDITIONS BREAKOUT
WIND DIRECTION BREAKOUT
WEATHER BY HOUR - 16 MARCH, 2013
[ °F ]   °C
Local TimeTemperatureDewpointHumidityBarometerVisibilityWind DirectionWind SpeedGust SpeedPrecipitationEventsConditions
1:00 AM27 °C22 °C74 %1014.2 hPa10 kmESE (120°)13 km/hMostly Cloudy
2:00 AM26.7 °C21.7 °C69 %1013.9 hPa9.7 kmEast (90°)7.2 km/hPartly Cloudy
2:00 AM27 °C22 °C74 %1013.2 hPa10 kmEast (90°)5.6 km/hMostly Cloudy
3:00 AM25 °C22 °C83 %1013.2 hPa10 kmNE (50°)5.6 km/hScattered Clouds
4:00 AM26 °C22 °C78 %1013.2 hPa10 kmEast (80°)3.7 km/hPartly Cloudy
5:00 AM25.6 °C22.8 °C80 %1013.5 hPa9.7 kmEast (90°)3.5 km/hPartly Cloudy
5:00 AM26 °C23 °C83 %1014.2 hPa10 kmEast (90°)5.6 km/hScattered Clouds
6:00 AM25 °C23 °C89 %1015.2 hPa10 kmVariable3.7 km/hScattered Clouds
7:00 AM26 °C23 °C83 %1015.2 hPa10 kmEast (100°)5.6 km/hScattered Clouds
8:00 AM26.7 °C22.8 °C73 %1016.3 hPa9.7 kmESE (120°)10.8 km/hHaze
8:00 AM26 °C23 °C83 %1016.3 hPa10 kmESE (120°)11.1 km/hMostly Cloudy
9:00 AM28 °C23 °C74 %1016.3 hPa10 kmESE (110°)5.6 km/hMostly Cloudy
10:00 AM30 °C22 °C62 %1016.3 hPa10 kmEast (90°)7.4 km/hScattered Clouds
11:00 AM31.1 °C21.7 °C48 %1016.3 hPa9.7 kmEast (90°)7.2 km/hHaze
11:00 AM31 °C22 °C58 %1016.3 hPa10 kmEast (90°)9.3 km/hScattered Clouds
12:00 PM29 °C22 °C66 %1015.2 hPa10 kmWNW (300°)11.1 km/hMostly Cloudy
1:00 PM30 °C22 °C62 %1014.2 hPa10 kmWNW (300°)5.6 km/hMostly Cloudy
2:00 PM30 °C21.7 °C52 %1014.2 hPa9.7 kmSE (140°)14.3 km/hHaze
2:00 PM30 °C22 °C62 %1014.2 hPa10 kmSE (140°)14.8 km/hMostly Cloudy
3:00 PM31 °C22 °C58 %1013.2 hPa10 kmSE (130°)18.5 km/hMostly Cloudy
4:00 PM29 °C22 °C66 %1012.2 hPa10 kmESE (110°)18.5 km/hMostly Cloudy
5:00 PM29 °C22 °C66 %1013.2 hPa10 kmESE (120°)18.5 km/hScattered Clouds
6:00 PM29 °C22 °C66 %1013.2 hPa10 kmESE (110°)14.8 km/hMostly Cloudy
7:00 PM28 °C23 °C74 %1013.2 hPa10 kmESE (110°)18.5 km/hMostly Cloudy
8:00 PM28.3 °C22.8 °C64 %1013.9 hPa9.7 kmESE (110°)14.3 km/hHaze
8:00 PM28 °C23 °C74 %1014.2 hPa10 kmESE (110°)14.8 km/hMostly Cloudy
9:00 PM27 °C22 °C74 %1014.2 hPa10 kmSE (130°)14.8 km/hScattered Clouds
10:00 PM27 °C22 °C74 %1014.2 hPa10 kmESE (110°)14.8 km/hPartly Cloudy
11:00 PM27.2 °C22.2 °C66 %1014.6 hPa9.7 kmESE (120°)14.3 km/hHaze
11:00 PM27 °C22 °C74 %1014.2 hPa10 kmESE (120°)16.7 km/hPartly Cloudy
Hourly data recorded from RPLL, located 0 kilometers away from Quezon City, Philippines







STORIES FROM OUR PARTNERS